Orbital Elements at Epoch 2459200.5 (2020-Dec-17.0) TDB
Reference: JPL 19 (heliocentric ecliptic J2000)
Element | Value | Uncertainty (1-sigma) | Units |
e | .06434306125861833 | 5.7086e-08 | |
a | 2.598655223319729 | 1.8989e-08 | au |
q | 2.431449791095639 | 1.4416e-07 | au |
i | 10.28886766101914 | 5.7964e-06 | deg |
node | 299.2330466365726 | 2.9132e-05 | deg |
peri | 358.7746134422638 | 6.3393e-05 | deg |
M | 178.2021562506449 | 6.1232e-05 | deg |
tp | 2458443.088533338273 (2018-Nov-20.58853334) | 0.00025674 | TDB |
period | 1530.105660532572 4.19 | 1.6772e-05 4.592e-08 | d yr |
n | .235277869552288 | 2.5789e-09 | deg/d |
Q | 2.765860655543818 | 2.0211e-08 | au |
|
| | Orbit Determination Parameters
Additional Information
|